• In Hungary
  • List of Countries
  • For 7 days
  • Water Temperature
  • Satellite Maps
  • Weather Map
  • News
  • Weather Widgets
  • user-avatar
    Login

    Hourly Weather Oruro

    Today, 24 October, Tuesday

    Time Temperature Precipitation Wind Pressure Humidity
    00:00 +9°C° 0 mm 3 mps 476 mmHg 46%
    01:00 +9°C° 0 mm 2 mps 476 mmHg 48%
    02:00 +9°C° 0 mm 2 mps 476 mmHg 50%
    03:00 +8°C° 0 mm 2 mps 475 mmHg 50%
    04:00 +9°C° 0 mm 1 mps 475 mmHg 50%
    05:00 +9°C° 0 mm 1 mps 475 mmHg 51%
    06:00 +9°C° 0 mm 2 mps 476 mmHg 45%
    07:00 +10°C° 0 mm 2 mps 476 mmHg 40%
    08:00 +12°C° 0 mm 2 mps 477 mmHg 35%
    09:00 +13°C° 0 mm 2 mps 478 mmHg 30%
    10:00 +14°C° 0 mm 2 mps 479 mmHg 26%
    11:00 +16°C° 0 mm 2 mps 479 mmHg 21%
    12:00 +17°C° 0 mm 2 mps 479 mmHg 18%
    13:00 +18°C° 0 mm 3 mps 479 mmHg 15%
    14:00 +18°C° 0 mm 3 mps 479 mmHg 12%
    15:00 +18°C° 0 mm 4 mps 479 mmHg 12%
    16:00 +18°C° 0 mm 4 mps 479 mmHg 13%
    17:00 +17°C° 0 mm 5 mps 478 mmHg 13%
    18:00 +15°C° 0.1 mm 5 mps 478 mmHg 21%
    19:00 +14°C° 0.1 mm 5 mps 477 mmHg 30%
    20:00 +12°C° 0.1 mm 4 mps 477 mmHg 38%
    21:00 +11°C° 0 mm 4 mps 477 mmHg 43%
    22:00 +10°C° 0 mm 4 mps 476 mmHg 48%
    23:00 +8°C° 0 mm 4 mps 476 mmHg 54%

    Tomorrow, 25 October, Wednesday

    Time Temperature Precipitation Wind Pressure Humidity
    00:00 +9°C° 0 mm 3 mps 476 mmHg 55%
    01:00 +9°C° 0 mm 3 mps 476 mmHg 57%
    02:00 +8°C° 0 mm 3 mps 475 mmHg 58%
    03:00 +8°C° 0 mm 2 mps 475 mmHg 60%
    04:00 +8°C° 0 mm 2 mps 475 mmHg 61%
    05:00 +7°C° 0 mm 2 mps 475 mmHg 62%
    06:00 +8°C° 0 mm 2 mps 476 mmHg 57%
    07:00 +9°C° 0 mm 2 mps 476 mmHg 52%
    08:00 +10°C° 0 mm 3 mps 477 mmHg 47%
    09:00 +13°C° 0 mm 2 mps 478 mmHg 40%
    10:00 +14°C° 0 mm 2 mps 479 mmHg 33%
    11:00 +16°C° 0 mm 2 mps 480 mmHg 26%
    12:00 +17°C° 0 mm 2 mps 480 mmHg 23%
    13:00 +17°C° 0 mm 3 mps 479 mmHg 21%
    14:00 +18°C° 0 mm 3 mps 479 mmHg 18%
    15:00 +18°C° 0.2 mm 3 mps 479 mmHg 20%
    16:00 +17°C° 0.2 mm 4 mps 478 mmHg 22%
    17:00 +17°C° 0.2 mm 4 mps 477 mmHg 24%
    18:00 +14°C° 0.3 mm 4 mps 477 mmHg 30%
    19:00 +13°C° 0.3 mm 5 mps 477 mmHg 36%
    20:00 +12°C° 0.3 mm 5 mps 477 mmHg 43%
    21:00 +11°C° 0 mm 4 mps 477 mmHg 46%
    22:00 +11°C° 0 mm 4 mps 477 mmHg 49%
    23:00 +10°C° 0 mm 3 mps 477 mmHg 53%

    Day after tomorrow, 26 October, Thursday

    Time Temperature Precipitation Wind Pressure Humidity
    00:00 +10°C° 0 mm 3 mps 476 mmHg 55%
    01:00 +9°C° 0 mm 3 mps 476 mmHg 56%
    02:00 +9°C° 0 mm 2 mps 475 mmHg 58%
    03:00 +9°C° 0 mm 2 mps 475 mmHg 59%
    04:00 +8°C° 0 mm 2 mps 475 mmHg 60%
    05:00 +9°C° 0 mm 1 mps 474 mmHg 61%
    06:00 +10°C° 0 mm 1 mps 475 mmHg 55%
    07:00 +11°C° 0 mm 1 mps 476 mmHg 48%
    08:00 +11°C° 0 mm 1 mps 477 mmHg 42%
    09:00 +13°C° 0 mm 1 mps 478 mmHg 35%
    10:00 +15°C° 0 mm 2 mps 478 mmHg 28%
    11:00 +16°C° 0 mm 2 mps 479 mmHg 21%
    12:00 +17°C° 0 mm 2 mps 479 mmHg 19%
    13:00 +18°C° 0 mm 2 mps 479 mmHg 17%
    14:00 +19°C° 0 mm 2 mps 479 mmHg 15%
    15:00 +19°C° 0.1 mm 3 mps 479 mmHg 16%
    16:00 +18°C° 0.1 mm 3 mps 478 mmHg 18%
    17:00 +18°C° 0.1 mm 3 mps 478 mmHg 20%
    18:00 +15°C° 0.1 mm 4 mps 477 mmHg 29%
    19:00 +14°C° 0.1 mm 5 mps 477 mmHg 39%
    20:00 +11°C° 0.1 mm 6 mps 477 mmHg 48%
    21:00 +11°C° 0 mm 6 mps 476 mmHg 51%
    22:00 +10°C° 0 mm 5 mps 476 mmHg 54%
    23:00 +10°C° 0 mm 4 mps 476 mmHg 57%

    27 October, Friday

    Time Temperature Precipitation Wind Pressure Humidity
    00:00 +10°C° 0 mm 3 mps 476 mmHg 57%
    01:00 +9°C° 0 mm 3 mps 475 mmHg 58%
    02:00 +9°C° 0 mm 2 mps 475 mmHg 59%
    03:00 +9°C° 0 mm 2 mps 475 mmHg 60%
    04:00 +8°C° 0 mm 2 mps 475 mmHg 62%
    05:00 +8°C° 0 mm 2 mps 475 mmHg 63%
    06:00 +9°C° 0 mm 2 mps 476 mmHg 58%
    07:00 +10°C° 0 mm 3 mps 476 mmHg 53%
    08:00 +11°C° 0 mm 3 mps 477 mmHg 48%
    09:00 +12°C° 0 mm 3 mps 478 mmHg 42%
    10:00 +14°C° 0 mm 3 mps 478 mmHg 36%
    11:00 +16°C° 0 mm 3 mps 479 mmHg 29%
    12:00 +17°C° 0 mm 3 mps 479 mmHg 28%
    13:00 +18°C° 0 mm 4 mps 478 mmHg 27%
    14:00 +19°C° 0 mm 4 mps 478 mmHg 25%
    15:00 +18°C° 0.5 mm 4 mps 477 mmHg 30%
    16:00 +17°C° 0.5 mm 4 mps 476 mmHg 34%
    17:00 +15°C° 0.5 mm 4 mps 475 mmHg 39%
    18:00 +13°C° 1.2 mm 5 mps 475 mmHg 46%
    19:00 +12°C° 1.2 mm 5 mps 475 mmHg 54%
    20:00 +10°C° 1.2 mm 6 mps 475 mmHg 61%
    21:00 +9°C° 0.4 mm 6 mps 475 mmHg 62%
    22:00 +9°C° 0.4 mm 5 mps 475 mmHg 63%
    23:00 +9°C° 0.4 mm 5 mps 475 mmHg 63%

    28 October, Saturday

    Time Temperature Precipitation Wind Pressure Humidity
    00:00 +9°C° 0.1 mm 5 mps 475 mmHg 62%
    01:00 +10°C° 0.1 mm 4 mps 475 mmHg 61%
    02:00 +10°C° 0.1 mm 4 mps 475 mmHg 60%
    03:00 +8°C° 0 mm 4 mps 474 mmHg 63%
    04:00 +8°C° 0 mm 4 mps 474 mmHg 65%
    05:00 +8°C° 0 mm 3 mps 474 mmHg 67%
    06:00 +8°C° 0 mm 4 mps 475 mmHg 61%
    07:00 +10°C° 0 mm 4 mps 475 mmHg 55%
    08:00 +10°C° 0 mm 4 mps 476 mmHg 49%
    09:00 +12°C° 0 mm 5 mps 477 mmHg 43%
    10:00 +13°C° 0 mm 5 mps 477 mmHg 37%
    11:00 +14°C° 0 mm 5 mps 478 mmHg 31%
    12:00 +15°C° 0.1 mm 6 mps 478 mmHg 29%
    13:00 +16°C° 0.1 mm 6 mps 478 mmHg 26%
    14:00 +17°C° 0.1 mm 6 mps 477 mmHg 24%
    15:00 +17°C° 0.1 mm 6 mps 477 mmHg 24%
    16:00 +17°C° 0.1 mm 6 mps 477 mmHg 24%
    17:00 +17°C° 0.1 mm 7 mps 477 mmHg 23%
    18:00 +15°C° 0 mm 6 mps 476 mmHg 31%
    19:00 +13°C° 0 mm 6 mps 476 mmHg 39%
    20:00 +10°C° 0 mm 5 mps 475 mmHg 47%
    21:00 +10°C° 0 mm 5 mps 475 mmHg 47%
    22:00 +9°C° 0 mm 5 mps 475 mmHg 47%
    23:00 +8°C° 0 mm 4 mps 475 mmHg 48%

    29 October, Sunday

    Time Temperature Precipitation Wind Pressure Humidity
    00:00 +8°C° 0 mm 4 mps 475 mmHg 45%
    01:00 +8°C° 0 mm 3 mps 474 mmHg 42%
    02:00 +7°C° 0 mm 3 mps 474 mmHg 39%
    03:00 +7°C° 0 mm 3 mps 473 mmHg 35%
    04:00 +6°C° 0 mm 2 mps 473 mmHg 31%
    05:00 +5°C° 0 mm 2 mps 473 mmHg 27%
    06:00 +6°C° 0 mm 2 mps 473 mmHg 23%
    07:00 +7°C° 0 mm 2 mps 474 mmHg 19%
    08:00 +8°C° 0 mm 2 mps 475 mmHg 16%
    09:00 +10°C° 0 mm 3 mps 476 mmHg 14%
    10:00 +11°C° 0 mm 3 mps 476 mmHg 13%
    11:00 +13°C° 0 mm 4 mps 477 mmHg 11%
    12:00 +14°C° 0 mm 4 mps 477 mmHg 10%
    13:00 +15°C° 0 mm 4 mps 477 mmHg 10%
    14:00 +17°C° 0 mm 5 mps 478 mmHg 9%
    15:00 +18°C° 0 mm 4 mps 478 mmHg 9%
    16:00 +18°C° 0 mm 4 mps 477 mmHg 9%
    17:00 +18°C° 0 mm 4 mps 477 mmHg 9%
    18:00 +17°C° 0 mm 4 mps 477 mmHg 14%
    19:00 +14°C° 0 mm 5 mps 477 mmHg 19%
    20:00 +13°C° 0 mm 5 mps 477 mmHg 23%
    21:00 +12°C° 0 mm 5 mps 476 mmHg 23%
    22:00 +11°C° 0 mm 4 mps 476 mmHg 23%
    23:00 +10°C° 0 mm 4 mps 476 mmHg 23%

    30 October, Monday

    Time Temperature Precipitation Wind Pressure Humidity
    00:00 +9°C° 0 mm 3 mps 475 mmHg 22%
    01:00 +8°C° 0 mm 3 mps 474 mmHg 22%
    02:00 +7°C° 0 mm 3 mps 474 mmHg 21%
    03:00 +7°C° 0 mm 2 mps 473 mmHg 21%
    04:00 +6°C° 0 mm 2 mps 473 mmHg 22%
    05:00 +6°C° 0 mm 1 mps 473 mmHg 22%
    06:00 +7°C° 0 mm 1 mps 474 mmHg 19%
    07:00 +8°C° 0 mm 1 mps 475 mmHg 17%
    08:00 +8°C° 0 mm 2 mps 475 mmHg 15%
    09:00 +10°C° 0 mm 2 mps 476 mmHg 15%
    10:00 +12°C° 0 mm 2 mps 477 mmHg 14%
    11:00 +13°C° 0 mm 3 mps 477 mmHg 14%
    12:00 +14°C° 0 mm 3 mps 477 mmHg 13%
    13:00 +15°C° 0 mm 4 mps 478 mmHg 12%
    14:00 +17°C° 0 mm 5 mps 478 mmHg 11%
    15:00 +17°C° 0 mm 5 mps 478 mmHg 12%
    16:00 +17°C° 0 mm 5 mps 478 mmHg 12%
    17:00 +17°C° 0 mm 5 mps 478 mmHg 12%
    18:00 +15°C° 0 mm 5 mps 477 mmHg 20%
    19:00 +14°C° 0 mm 5 mps 477 mmHg 27%
    20:00 +12°C° 0 mm 5 mps 476 mmHg 35%
    21:00 +10°C° 0 mm 5 mps 476 mmHg 35%
    22:00 +10°C° 0 mm 4 mps 476 mmHg 35%
    23:00 +9°C° 0 mm 3 mps 476 mmHg 35%
    Show more